KY4OP-13 Weather Reports


Display with metric or nautical units.
time (UTC)temp
F
wind
direction
speed
MPH
gust
MPH
rain 1hr
in
rain 24hr
in
rain mn
in
humidity
%
barometer
mb
20260507185028 58 208 4.0 8.0 0.00 0.17 0.17 68 1012.4
20260507184526 60 249 1.0 4.0 0.00 0.17 0.17 70 1012.5
20260507184024 59 218 3.0 7.0 0.00 0.17 0.17 72 1012.5
20260507183519 60 211 2.0 4.0 0.00 0.17 0.17 75 1012.3
20260507183017 61 244 4.0 4.0 0.00 0.17 0.17 62 1012.3
20260507182513 58 152 0.0 1.0 0.00 0.17 0.17 73 1012.8
20260507182008 57 212 2.0 4.0 0.00 0.17 0.17 70 1013.1
20260507181506 58 213 4.0 4.0 0.00 0.17 0.17 68 1013.0
20260507181002 59 266 1.0 6.0 0.00 0.17 0.17 70 1012.9
20260507180458 57 235 1.0 3.0 0.00 0.17 0.17 77 1012.7
20260507175954 56 232 2.0 3.0 0.00 0.17 0.17 78 1013.2
20260507175452 55 266 1.0 3.0 0.00 0.17 0.17 72 1012.8
20260507174949 56 226 3.0 3.0 0.00 0.17 0.17 71 1012.9
20260507174446 56 228 1.0 2.0 0.00 0.17 0.17 73 1013.0
20260507173943 56 211 0.0 3.0 0.00 0.17 0.17 77 1013.2
20260507173440 56 242 2.0 3.0 0.00 0.17 0.17 73 1013.2
20260507172937 58 218 2.0 2.0 0.00 0.17 0.17 71 1013.1
20260507172434 58 275 0.0 1.0 0.00 0.17 0.17 72 1013.1
20260507171930 56 188 0.0 1.0 0.00 0.17 0.17 73 1013.3
20260507171426 56 230 3.0 4.0 0.00 0.17 0.17 69 1013.6
20260507170924 57 1 0.0 1.0 0.00 0.17 0.17 71 1013.4
20260507170420 56 262 1.0 1.0 0.00 0.17 0.17 72 1013.6
20260507165917 56 354 0.0 1.0 0.00 0.17 0.17 71 1013.4
20260507165413 57 69 1.0 2.0 0.00 0.17 0.17 71 1013.7
20260507164909 57 255 0.0 4.0 0.00 0.17 0.17 70 1013.5
20260507164406 58 54 1.0 2.0 0.00 0.17 0.17 70 1013.7
20260507163903 57 132 0.0 0.0 0.00 0.17 0.17 76 1013.6
20260507163400 56 85 2.0 2.0 0.00 0.17 0.17 72 1013.8
20260507162857 56 167 0.0 0.0 0.00 0.17 0.17 77 1013.9
20260507162352 55 41 1.0 2.0 0.00 0.17 0.17 75 1014.2
20260507161849 56 253 0.0 0.0 0.00 0.17 0.17 75 1014.4
20260507161346 55 44 0.0 0.0 0.00 0.17 0.17 78 1014.4
20260507160843 55 24 3.0 3.0 0.05 0.17 0.17 71 1014.3
20260507160338 55 155 0.0 1.0 0.05 0.17 0.17 74 1014.6
20260507155835 55 152 0.0 2.0 0.00 0.16 0.16 75 1014.6
20260507155331 54 41 2.0 2.0 0.00 0.16 0.16 67 1014.2
20260507154828 55 2 1.0 1.0 0.00 0.16 0.16 66 1014.4
20260507154325 55 20 2.0 6.0 0.00 0.16 0.16 69 1014.0
20260507153821 56 18 3.0 7.0 0.00 0.16 0.16 66 1014.1
20260507153318 55 79 1.0 2.0 0.00 0.16 0.16 71 1014.0
20260507152814 55 12 4.0 6.0 0.00 0.16 0.16 68 1014.2
20260507152311 55 30 5.0 7.0 0.00 0.16 0.16 68 1014.3
20260507151807 54 41 2.0 7.0 0.00 0.16 0.16 73 1014.2
20260507151303 54 48 4.0 6.0 0.00 0.16 0.16 71 1014.5
20260507150800 54 73 2.0 3.0 0.00 0.16 0.16 77 1014.3
20260507150257 54 83 2.0 2.0 0.00 0.16 0.16 77 1014.5
20260507145753 53 47 1.0 3.0 0.00 0.16 0.16 79 1014.4
20260507145249 53 7 2.0 3.0 0.00 0.16 0.16 78 1014.6
20260507144747 53 83 1.0 2.0 0.00 0.16 0.16 82 1014.4
20260507144244 53 63 2.0 2.0 0.00 0.16 0.16 82 1014.7
20260507143740 53 98 1.0 2.0 0.00 0.16 0.16 82 1014.7
20260507143238 53 65 2.0 2.0 0.00 0.16 0.16 83 1014.7
20260507142734 52 31 1.0 3.0 0.00 0.16 0.16 82 1014.8
20260507142230 52 31 2.0 3.0 0.00 0.16 0.16 82 1014.9
20260507141727 52 64 1.0 3.0 0.00 0.16 0.16 83 1015.0
20260507141224 52 29 4.0 6.0 0.00 0.16 0.16 82 1015.0
20260507140720 53 67 1.0 2.0 0.00 0.16 0.16 84 1015.0
20260507140218 53 44 1.0 2.0 0.00 0.16 0.16 83 1015.0
20260507135714 53 66 1.0 2.0 0.00 0.16 0.16 83 1015.1
20260507135212 53 45 1.0 6.0 0.00 0.16 0.16 82 1015.1
20260507134708 53 62 4.0 8.0 0.00 0.16 0.16 80 1015.1
20260507134204 53 56 4.0 7.0 0.00 0.16 0.16 81 1015.0
20260507133700 53 34 1.0 8.0 0.00 0.16 0.16 83 1014.9
20260507133158 53 53 3.0 4.0 0.00 0.16 0.16 82 1015.0
20260507132655 53 69 3.0 10.0 0.00 0.16 0.16 83 1015.2
20260507132151 53 54 1.0 3.0 0.00 0.16 0.16 85 1015.0
20260507131648 53 57 1.0 3.0 0.00 0.16 0.16 86 1015.0
20260507131145 53 30 6.0 7.0 0.00 0.16 0.16 86 1015.0
20260507130642 53 32 4.0 7.0 0.00 0.16 0.16 86 1014.8
20260507130140 53 27 3.0 3.0 0.00 0.16 0.16 87 1015.1
20260507125639 53 57 2.0 4.0 0.00 0.16 0.16 87 1014.9
20260507125136 53 26 2.0 4.0 0.00 0.16 0.16 86 1015.1
20260507124631 53 60 1.0 3.0 0.00 0.16 0.16 86 1015.0
20260507124130 53 22 1.0 3.0 0.00 0.16 0.16 87 1015.1
20260507123628 53 72 3.0 3.0 0.00 0.16 0.16 86 1015.0
20260507123124 53 37 3.0 4.0 0.00 0.16 0.16 87 1015.0
20260507122620 53 64 0.0 4.0 0.00 0.16 0.16 87 1014.8
20260507122115 53 71 2.0 6.0 0.00 0.16 0.16 87 1014.5
20260507121612 53 37 4.0 6.0 0.00 0.16 0.16 87 1014.5
20260507121108 53 76 1.0 2.0 0.00 0.16 0.16 88 1014.6
20260507120604 53 19 1.0 3.0 0.00 0.16 0.16 88 1014.6
20260507120100 53 41 0.0 2.0 0.00 0.16 0.16 87 1014.5
20260507115557 53 33 1.0 4.0 0.00 0.16 0.16 87 1014.6
20260507115053 53 12 0.0 0.0 0.00 0.16 0.16 87 1014.4
20260507114549 53 9 3.0 3.0 0.00 0.16 0.16 85 1014.3
20260507114046 53 55 3.0 7.0 0.00 0.16 0.16 86 1014.3
20260507113543 53 77 2.0 4.0 0.00 0.16 0.16 87 1014.2
20260507113040 53 1 3.0 7.0 0.00 0.16 0.16 87 1014.0
20260507112538 52 68 2.0 3.0 0.00 0.16 0.16 89 1014.2
20260507112035 52 68 1.0 2.0 0.00 0.16 0.16 89 1014.1
20260507111532 52 59 1.0 2.0 0.00 0.16 0.16 90 1014.1
20260507111028 52 79 1.0 3.0 0.00 0.16 0.16 91 1014.0
20260507110525 52 51 1.0 2.0 0.00 0.16 0.16 91 1014.1
20260507110021 52 32 0.0 0.0 0.00 0.16 0.16 91 1014.0
20260507105519 52 65 0.0 2.0 0.00 0.16 0.16 91 1014.2
20260507105014 52 30 0.0 4.0 0.00 0.16 0.16 91 1014.0
20260507104512 52 28 2.0 2.0 0.00 0.16 0.16 92 1014.2
20260507104008 52 49 0.0 1.0 0.00 0.16 0.16 92 1014.0
20260507103505 52 53 0.0 1.0 0.00 0.16 0.16 92 1014.0
20260507103001 52 54 1.0 1.0 0.00 0.16 0.16 92 1013.7
20260507102458 52 50 1.0 1.0 0.00 0.16 0.16 92 1014.1
20260507101954 52 59 1.0 1.0 0.00 0.16 0.16 92 1014.0
20260507101449 52 58 0.0 0.0 0.00 0.16 0.16 92 1013.9
20260507100946 52 35 0.0 1.0 0.00 0.16 0.16 92 1013.9
20260507100444 52 38 2.0 2.0 0.00 0.16 0.16 93 1013.5
20260507095942 0 0.0 0.0 0.00 0.16 0.16 1013.8
20260507095439 52 59 0.0 1.0 0.00 0.16 0.16 93 1013.6
20260507094936 52 59 0.0 1.0 0.00 0.16 0.16 93 1013.5
20260507094432 52 60 0.0 1.0 0.00 0.16 0.16 93 1013.8
20260507093929 0 0.0 0.0 0.00 0.16 0.16 1013.6
20260507093427 0 0.0 0.0 0.00 0.16 0.16 1013.8
20260507092920 0 0.0 0.0 0.00 0.16 0.16 1013.6
20260507092415 0 0.0 0.0 0.00 0.16 0.16 1013.6
20260507091912 52 43 0.0 0.0 0.00 0.16 0.16 94 1013.6
20260507091409 52 43 0.0 0.0 0.00 0.16 0.16 94 1013.6
20260507090904 52 75 1.0 1.0 0.00 0.16 0.16 94 1013.6
20260507090401 52 77 1.0 1.0 0.00 0.16 0.16 94 1013.4
20260507085858 52 77 1.0 1.0 0.00 0.16 0.16 94 1013.5
20260507085355 52 82 0.0 1.0 0.00 0.16 0.16 94 1013.2
20260507084852 52 69 1.0 1.0 0.00 0.16 0.16 93 1013.1
20260507084348 52 74 1.0 3.0 0.00 0.16 0.16 93 1013.0
20260507083846 52 89 2.0 2.0 0.00 0.16 0.16 93 1013.1
20260507083342 52 74 2.0 6.0 0.00 0.16 0.16 93 1013.2
20260507082839 52 49 2.0 2.0 0.00 0.16 0.16 94 1013.1
20260507082334 52 60 4.0 4.0 0.00 0.16 0.16 94 1013.3
20260507081832 52 79 1.0 2.0 0.00 0.16 0.16 94 1013.2
20260507081327 52 37 1.0 3.0 0.00 0.16 0.16 93 1013.3
20260507080824 52 31 3.0 4.0 0.00 0.16 0.16 94 1013.1
20260507080321 52 60 3.0 3.0 0.00 0.16 0.16 94 1013.3
20260507075816 52 354 2.0 2.0 0.00 0.16 0.16 94 1013.3
20260507075312 52 69 2.0 6.0 0.00 0.16 0.16 94 1013.2
20260507074809 52 74 3.0 4.0 0.00 0.16 0.16 94 1013.5
20260507074307 52 30 1.0 6.0 0.00 0.16 0.16 94 1013.2
20260507073803 52 49 2.0 3.0 0.00 0.16 0.16 95 1012.9
20260507073300 53 87 1.0 4.0 0.00 0.16 0.16 95 1012.5
20260507072757 53 42 3.0 4.0 0.00 0.16 0.16 95 1012.4
20260507072255 53 47 1.0 7.0 0.00 0.16 0.16 95 1012.4
20260507071752 53 38 4.0 6.0 0.00 0.16 0.16 95 1012.5
20260507071248 53 53 3.0 4.0 0.00 0.16 0.16 96 1012.6
20260507070745 53 39 2.0 3.0 0.00 0.16 0.16 96 1012.6
20260507070242 53 53 2.0 7.0 0.00 0.16 0.16 96 1012.7
20260507065739 53 11 1.0 3.0 0.00 0.16 0.16 96 1012.4
20260507065236 53 64 3.0 6.0 0.00 0.16 0.16 96 1012.8
20260507064733 54 65 4.0 4.0 0.00 0.16 0.16 96 1012.7
20260507064232 54 29 3.0 4.0 0.00 0.16 0.16 96 1012.5
20260507063729 54 58 5.0 6.0 0.00 0.16 0.16 96 1012.7
20260507063226 54 15 5.0 8.0 0.00 0.16 0.16 96 1012.6
20260507062722 54 41 4.0 4.0 0.00 0.16 0.16 95 1012.6
20260507062220 54 68 4.0 6.0 0.00 0.16 0.16 96 1012.4
20260507061718 54 77 5.0 7.0 0.00 0.16 0.16 96 1012.5
20260507061216 55 36 3.0 6.0 0.00 0.16 0.16 96 1012.8
20260507060714 55 36 3.0 3.0 0.00 0.16 0.16 96 1013.3
20260507060210 55 67 2.0 7.0 0.00 0.16 0.16 96 1013.1
20260507055706 55 63 3.0 4.0 0.00 0.16 0.16 96 1013.0
20260507055202 55 26 4.0 6.0 0.00 0.16 0.16 97 1013.1
20260507054658 55 67 1.0 8.0 0.00 0.16 0.16 97 1012.9
20260507054154 55 29 4.0 4.0 0.00 0.16 0.16 97 1012.9
20260507053653 55 45 3.0 4.0 0.00 0.16 0.16 97 1012.8
20260507053150 56 326 1.0 4.0 0.00 0.16 0.16 97 1012.6
20260507052649 56 24 5.0 8.0 0.00 0.16 0.16 97 1012.6
20260507052144 56 26 2.0 7.0 0.00 0.16 0.16 97 1012.6
20260507051642 56 7 4.0 7.0 0.00 0.16 0.16 98 1012.2
20260507051139 56 62 3.0 8.0 0.00 0.16 0.16 98 1011.8
20260507050635 56 22 3.0 6.0 0.07 0.16 0.16 98 1011.6
20260507050126 56 22 4.0 4.0 0.00 0.15 0.15 97 1011.7
20260507045623 57 249 1.0 2.0 0.00 0.15 0.15 97 1012.3
20260507045120 57 81 1.0 3.0 0.00 0.15 0.15 97 1012.7
20260507044617 57 25 0.0 1.0 0.00 0.15 0.15 97 1012.4
20260507044114 57 353 2.0 8.0 0.35 0.15 0.15 97 1011.4
20260507043609 57 53 1.0 1.0 0.42 0.15 0.15 97 1011.1
20260507043106 58 95 2.0 3.0 0.42 0.09 0.09 97 1011.8
20260507042602 58 319 1.0 3.0 0.42 0.08 0.08 97 1013.0
20260507042058 58 58 2.0 4.0 0.07 0.02 0.02 97 1012.7
20260507041555 58 47 3.0 4.0 0.00 0.01 0.01 97 1012.4
20260507041052 59 45 2.0 3.0 0.00 0.01 0.01 97 1012.5
20260507040548 59 82 2.0 6.0 0.05 0.01 0.01 97 1012.1
20260507040044 59 33 2.0 2.0 0.00 0.00 0.00 97 1012.2
20260507035541 59 63 1.0 6.0 0.00 0.24 0.24 96 1012.5
20260507035037 60 67 2.0 9.0 0.07 0.24 0.24 97 1012.6
20260507034534 60 39 2.0 6.0 0.35 0.24 0.24 96 1012.9
20260507034033 61 63 4.0 7.0 0.42 0.21 0.21 96 1012.9
20260507033530 62 308 1.0 2.0 0.07 0.15 0.15 96 1012.4
20260507033027 62 263 2.0 2.0 0.05 0.14 0.14 96 1012.5
20260507032524 63 49 4.0 6.0 0.12 0.14 0.14 96 1012.3
20260507032020 63 222 2.0 2.0 0.07 0.13 0.13 96 1012.4
20260507031516 63 18 1.0 2.0 0.00 0.12 0.12 96 1012.1
20260507031014 63 25 1.0 3.0 0.00 0.12 0.12 96 1011.7
20260507030510 64 86 1.0 1.0 0.05 0.12 0.12 95 1011.6
20260507030008 64 87 1.0 2.0 0.12 0.12 0.12 95 1011.8
20260507025504 64 37 1.0 2.0 0.07 0.11 0.11 95 1011.7
20260507025002 64 61 2.0 2.0 0.00 0.10 0.10 95 1012.1
20260507024459 64 77 1.0 3.0 0.00 0.10 0.10 95 1012.0
20260507023955 64 40 3.0 3.0 0.00 0.10 0.10 95 1011.8
20260507023452 64 62 1.0 1.0 0.00 0.10 0.10 94 1011.5
20260507022949 64 33 2.0 3.0 0.00 0.10 0.10 94 1011.6
20260507022447 64 68 0.0 1.0 0.00 0.10 0.10 94 1012.0
20260507021942 64 88 0.0 2.0 0.00 0.10 0.10 94 1011.8
20260507021437 64 46 1.0 1.0 0.00 0.10 0.10 93 1011.8
20260507020935 64 52 0.0 1.0 0.00 0.10 0.10 93 1011.7
20260507020432 64 70 1.0 2.0 0.00 0.10 0.10 92 1011.3
20260507015929 64 33 2.0 3.0 0.00 0.10 0.10 92 1011.4
20260507015427 63 70 1.0 2.0 0.00 0.10 0.10 93 1011.4
20260507014924 64 222 0.0 1.0 0.00 0.10 0.10 91 1011.1
20260507014420 64 222 0.0 0.0 0.00 0.10 0.10 91 1011.1
20260507013917 64 222 0.0 0.0 0.00 0.10 0.10 90 1010.9
20260507013414 65 222 0.0 1.0 0.00 0.10 0.10 89 1011.0
20260507012912 65 223 0.0 0.0 0.00 0.10 0.10 88 1011.4
20260507012408 66 223 0.0 0.0 0.00 0.10 0.10 87 1011.5
20260507011859 66 206 2.0 2.0 0.00 0.10 0.10 86 1011.4
20260507011355 66 216 0.0 1.0 0.00 0.10 0.10 86 1011.6
20260507010855 66 217 2.0 2.0 0.00 0.10 0.10 86 1011.4
20260507010351 67 220 2.0 2.0 0.00 0.10 0.10 86 1011.6
20260507005848 67 213 1.0 2.0 0.00 0.10 0.10 85 1011.5
20260507005345 67 260 3.0 3.0 0.00 0.10 0.10 85 1012.1
20260507004837 0 0.0 0.0 0.00 0.10 0.10 1011.5
20260507004334 67 222 2.0 2.0 0.00 0.10 0.10 85 1011.4
20260507003831 67 222 2.0 2.0 0.00 0.10 0.10 85 1011.4
20260507003326 67 236 1.0 1.0 0.00 0.10 0.10 85 1010.9
20260507002821 67 273 2.0 3.0 0.00 0.10 0.10 85 1011.0
20260507002317 67 229 1.0 2.0 0.00 0.10 0.10 85 1011.0
20260507001815 67 219 3.0 6.0 0.00 0.10 0.10 85 1010.8
20260507001312 67 202 3.0 4.0 0.00 0.10 0.10 85 1010.6
20260507000808 67 262 2.0 3.0 0.00 0.10 0.10 84 1010.6
20260507000306 67 235 2.0 2.0 0.00 0.10 0.10 84 1010.8
20260506235801 0 0.0 0.0 0.00 0.10 0.10 1010.7
20260506235256 0 0.0 0.0 0.00 0.10 0.10 1011.1
20260506234753 68 240 3.0 3.0 0.00 0.10 0.10 83 1010.7
20260506234250 0 0.0 0.0 0.00 0.10 0.10 1010.9
20260506233743 0 0.0 0.0 0.00 0.10 0.10 1010.7
20260506233239 69 238 6.0 7.0 0.00 0.10 0.10 81 1010.5
20260506232735 69 238 6.0 7.0 0.00 0.10 0.10 81 1010.7
20260506232230 69 225 4.0 7.0 0.00 0.10 0.10 81 1010.6
20260506231727 69 236 4.0 4.0 0.00 0.10 0.10 80 1010.6
20260506231226 70 233 5.0 7.0 0.00 0.10 0.10 80 1010.4
20260506230722 70 233 3.0 4.0 0.00 0.10 0.10 79 1010.1
20260506230219 69 212 2.0 3.0 0.00 0.10 0.10 80 1010.4
20260506225715 69 218 4.0 4.0 0.00 0.10 0.10 80 1010.3
20260506225212 69 233 4.0 7.0 0.00 0.10 0.10 80 1010.5
20260506224709 70 227 3.0 3.0 0.00 0.10 0.10 79 1010.6
20260506224206 70 232 4.0 8.0 0.00 0.10 0.10 79 1010.5
20260506223702 70 227 3.0 7.0 0.00 0.10 0.10 79 1010.6
20260506223158 70 228 1.0 6.0 0.00 0.10 0.10 79 1010.5
20260506222655 70 225 4.0 8.0 0.00 0.10 0.10 78 1010.4
20260506222150 70 214 3.0 6.0 0.00 0.10 0.10 79 1010.2
20260506221649 70 170 3.0 8.0 0.00 0.10 0.10 78 1010.3
20260506221147 70 234 4.0 6.0 0.00 0.10 0.10 79 1010.2
20260506220643 70 231 3.0 8.0 0.00 0.10 0.10 79 1010.3
20260506220138 70 285 3.0 4.0 0.00 0.10 0.10 79 1010.6
20260506215635 70 224 2.0 4.0 0.00 0.10 0.10 78 1010.3
20260506215130 71 248 4.0 6.0 0.00 0.10 0.10 78 1010.3
20260506214627 71 232 4.0 9.0 0.00 0.10 0.10 77 1009.9
20260506214125 71 231 3.0 4.0 0.00 0.10 0.10 76 1010.3
20260506213623 71 216 4.0 6.0 0.00 0.10 0.10 77 1010.2
20260506213120 70 222 7.0 9.0 0.00 0.10 0.10 78 1010.2
20260506212617 70 209 3.0 4.0 0.00 0.10 0.10 78 1010.1
20260506212112 70 235 5.0 7.0 0.00 0.10 0.10 78 1010.2
20260506211608 70 220 4.0 8.0 0.00 0.10 0.10 79 1010.3
20260506211105 70 212 6.0 8.0 0.00 0.10 0.10 78 1010.2
20260506210602 70 198 3.0 8.0 0.00 0.10 0.10 78 1010.0
20260506210058 70 244 9.0 13.0 0.00 0.10 0.10 78 1010.2
20260506205555 69 231 4.0 7.0 0.00 0.10 0.10 79 1010.0
20260506205050 69 238 7.0 8.0 0.00 0.10 0.10 80 1010.1
20260506204549 69 215 5.0 11.0 0.00 0.10 0.10 79 1010.0
20260506204045 69 235 5.0 8.0 0.00 0.10 0.10 80 1010.1
20260506203544 69 253 7.0 9.0 0.00 0.10 0.10 80 1010.1
20260506203040 69 205 5.0 8.0 0.00 0.10 0.10 81 1010.0
20260506202537 69 208 2.0 7.0 0.00 0.10 0.10 82 1010.1
20260506202033 69 236 8.0 9.0 0.00 0.10 0.10 80 1009.8
20260506201532 69 203 4.0 4.0 0.00 0.10 0.10 80 1010.3
20260506201028 69 224 4.0 4.0 0.00 0.10 0.10 81 1010.3
20260506200524 68 203 4.0 7.0 0.00 0.10 0.10 81 1010.1
20260506200021 68 233 4.0 8.0 0.00 0.10 0.10 81 1010.2
20260506195518 69 266 4.0 6.0 0.00 0.10 0.10 82 1010.4
20260506195009 68 214 5.0 7.0 0.00 0.10 0.10 82 1010.4
20260506194507 69 263 2.0 3.0 0.00 0.10 0.10 82 1010.3
20260506194002 69 230 5.0 6.0 0.00 0.10 0.10 80 1010.4
20260506193500 69 251 2.0 6.0 0.00 0.10 0.10 81 1010.3
20260506192956 68 254 3.0 7.0 0.00 0.10 0.10 82 1010.2
20260506192454 68 229 5.0 8.0 0.00 0.10 0.10 82 1010.5
20260506191949 67 230 3.0 8.0 0.00 0.10 0.10 84 1010.7
20260506191446 66 212 3.0 6.0 0.00 0.10 0.10 84 1010.7
20260506190943 66 212 1.0 6.0 0.00 0.10 0.10 85 1010.8
20260506190439 66 234 1.0 7.0 0.00 0.10 0.10 85 1010.9
20260506185931 66 247 2.0 4.0 0.00 0.10 0.10 84 1010.9